Content
SEND FEEDBACK

Daily
Averages
Monthly
Summary
Mexico

SAN MARTINIANO, QUINTANA ROO


Home > North America > Mexico > Quintana Roo
Elevation: 49 feet     Latitude: 20 47N     Longitude: 087 16W

WEATHER
 
SELECT A DAY
Number of Records: 202,104;   Date Range: 2/21/06 - 10/23/14
 
SHARE

PRINT THIS DATA

[ ← Previous Day ]
WEATHER ALMANAC - JULY 23, 2014
[ Next Day → ]
[ °C ]   °F
Weather ElementAverageHighLow
Temperature84.4 °F95 °F (2:35 pm)75.2 °F (2:55 am)
Dewpoint47.8 °F77 °F (8:55 pm) (7:00 pm)
Humidity60.5 %84 % (11:15 pm)36 % (2:35 pm)
Barometer30.08 in30.12 in (10:15 am)30.02 in (6:55 pm)
Wind Speed2.9 mph15 mph (3:35 pm)
Wind Gust18.4 mph (3:35 pm)
Weather ElementAverage
Visibility10 mi
Wind DirectionESE (121.1 °)

Weather ElementTotal
Precipitation---
Cooling Degree Days20.1 (Base 65)
Growing Degree Days35.1 (Base 50)
Averaged from 70 records on July 23, 2014
WEATHER CONDITIONS BREAKOUT
WIND DIRECTION BREAKOUT
WEATHER BY HOUR - JULY 23, 2014
[ °C ]   °F
Local TimeTemperatureDewpointHumidityBarometerVisibilityWind DirectionWind SpeedGust SpeedPrecipitationEventsConditions
12:35 AM77.0 °F0.0 °F30.10 in10.0 miCalmClear
12:55 AM77.0 °F0.0 °F30.10 in10.0 miCalmClear
1:15 AM77.0 °F0.0 °F30.09 in10.0 miCalmClear
1:35 AM77.0 °F0.0 °F30.09 in10.0 miCalmClear
1:55 AM77.0 °F0.0 °F30.09 in10.0 miCalmClear
2:35 AM77.0 °F0.0 °F30.08 in10.0 miCalmClear
2:55 AM75.2 °F0.0 °F30.08 in10.0 miCalmClear
3:15 AM75.2 °F0.0 °F30.07 in10.0 miSSE (160°)3.5 mphClear
3:35 AM77.0 °F0.0 °F30.07 in10.0 miCalmClear
3:55 AM77.0 °F0.0 °F30.07 in10.0 miCalmClear
4:15 AM75.2 °F0.0 °F30.07 in10.0 miCalmClear
4:35 AM75.2 °F0.0 °F30.06 in10.0 miCalmClear
4:55 AM75.2 °F0.0 °F30.06 in10.0 miCalmClear
5:15 AM75.2 °F0.0 °F30.07 in10.0 miSouth (170°)3.5 mphClear
5:35 AM75.2 °F0.0 °F30.07 in10.0 miCalmClear
5:55 AM75.2 °F0.0 °F30.08 in10.0 miCalmClear
6:15 AM75.2 °F0.0 °F30.08 in10.0 miCalmClear
6:35 AM75.2 °F0.0 °F30.08 in10.0 miNorthClear
6:55 AM75.2 °F0.0 °F30.09 in10.0 miNorthClear
7:15 AM75.2 °F0.0 °F30.09 in10.0 miNorthClear
7:35 AM77.0 °F0.0 °F30.09 in10.0 miNorthClear
7:55 AM77.0 °F0.0 °F30.10 in10.0 miNorthClear
8:15 AM78.8 °F0.0 °F30.10 in10.0 miCalmClear
8:35 AM80.6 °F0.0 °F30.11 in10.0 miCalmClear
8:55 AM82.4 °F75.2 °F79 %30.11 in10.0 miSouth (190°)4.6 mphClear
9:15 AM82.4 °F75.2 °F79 %30.11 in10.0 miSE (140°)3.5 mphClear
9:35 AM84.2 °F75.2 °F74 %30.11 in10.0 miCalmClear
9:55 AM86.0 °F75.2 °F70 %30.11 in10.0 miCalmClear
10:15 AM86.0 °F75.2 °F70 %30.12 in10.0 miCalmClear
10:35 AM87.8 °F75.2 °F66 %30.11 in10.0 miCalmClear
10:55 AM87.8 °F75.2 °F66 %30.12 in10.0 miCalmClear
11:15 AM89.6 °F73.4 °F59 %30.11 in10.0 miCalmClear
11:35 AM89.6 °F73.4 °F59 %30.11 in10.0 miWest (270°)3.5 mphScattered Clouds
11:55 AM89.6 °F71.6 °F55 %30.11 in10.0 miWest (270°)3.5 mphScattered Clouds
12:15 PM91.4 °F71.6 °F52 %30.11 in10.0 miWest (260°)5.8 mphScattered Clouds
12:35 PM91.4 °F69.8 °F49 %30.10 in10.0 miCalmScattered Clouds
12:55 PM93.2 °F69.8 °F46 %30.10 in10.0 miCalmScattered Clouds
1:15 PM91.4 °F71.6 °F52 %30.11 in10.0 miCalmScattered Clouds
1:35 PM93.2 °F71.6 °F49 %30.10 in10.0 miCalmMostly Cloudy
1:55 PM93.2 °F66.2 °F41 %30.09 in10.0 miSW (220°)5.8 mphScattered Clouds
2:15 PM93.2 °F68.0 °F44 %30.09 in10.0 miWest (280°)5.8 mphScattered Clouds
2:35 PM95.0 °F64.4 °F36 %30.08 in10.0 miWSW (240°)4.6 mphScattered Clouds
2:55 PM93.2 °F68.0 °F44 %30.08 in10.0 miNW (320°)3.5 mphMostly Cloudy
3:15 PM93.2 °F68.0 °F44 %30.07 in10.0 miWNW (290°)5.8 mphMostly Cloudy
3:35 PM91.4 °F73.4 °F55 %30.07 in10.0 miNW (310°)15.0 mph18.4 mphOvercast
3:55 PM87.8 °F71.6 °F58 %30.07 in10.0 miWNW (290°)10.4 mph16.1 mphScattered Clouds
4:15 PM89.6 °F71.6 °F55 %30.07 in10.0 miNW (310°)3.5 mphScattered Clouds
4:35 PM91.4 °F68.0 °F46 %30.06 in10.0 miNW (320°)5.8 mphScattered Clouds
4:55 PM93.2 °F69.8 °F46 %30.04 in10.0 miNW (320°)8.1 mphClear
5:15 PM93.2 °F71.6 °F49 %30.05 in10.0 miWest (280°)9.2 mphClear
5:35 PM91.4 °F73.4 °F55 %30.04 in10.0 miWest (280°)9.2 mphClear
5:55 PM91.4 °F73.4 °F55 %30.03 in10.0 miNW (320°)6.9 mphClear
6:15 PM91.4 °F73.4 °F55 %30.03 in10.0 miNW (320°)5.8 mphClear
6:35 PM91.4 °F71.6 °F52 %30.03 in10.0 miNW (310°)5.8 mphClear
6:55 PM91.4 °F71.6 °F52 %30.02 in10.0 miNW (320°)6.9 mphClear
7:15 PM91.4 °F71.6 °F52 %30.03 in10.0 miNW (310°)5.8 mphClear
7:35 PM89.6 °F71.6 °F55 %30.03 in10.0 miWNW (290°)3.5 mphClear
7:55 PM89.6 °F75.2 °F62 %30.03 in10.0 miWest (280°)4.6 mphClear
8:15 PM87.8 °F73.4 °F62 %30.03 in10.0 miWest (280°)5.8 mphClear
8:35 PM87.8 °F75.2 °F66 %30.03 in10.0 miWest (280°)3.5 mphClear
8:55 PM86.0 °F77.0 °F74 %30.05 in10.0 miCalmScattered Clouds
9:15 PM86.0 °F75.2 °F70 %30.06 in10.0 miSouth (190°)5.8 mphMostly Cloudy
9:35 PM84.2 °F75.2 °F74 %30.05 in10.0 miWSW (240°)3.5 mphScattered Clouds
9:55 PM84.2 °F75.2 °F74 %30.05 in10.0 miCalmClear
10:15 PM84.2 °F75.2 °F74 %30.07 in10.0 miSouth (170°)4.6 mphScattered Clouds
10:35 PM82.4 °F75.2 °F79 %30.07 in10.0 miSE (130°)5.8 mphMostly Cloudy
10:55 PM82.4 °F75.2 °F79 %30.06 in10.0 miESE (120°)3.5 mphMostly Cloudy
11:15 PM80.6 °F75.2 °F84 %30.07 in10.0 miCalmClear
11:35 PM80.6 °F75.2 °F84 %30.07 in10.0 miCalmClear
11:55 PM80.6 °F75.2 °F84 %30.07 in10.0 miCalmClear
Hourly data recorded from KPCM, located miles away from San Martiniano, Quintana Roo







STORIES FROM OUR PARTNERS